Weather History for New Orleans, LA

Change the Weather History Date:

Friday, April 27, 2012

  Actual Average Record
Temperature  
Mean Temperature 75 °F -  
Max Temperature 84 °F 80 °F 89 °F (1964)
Min Temperature 66 °F 60 °F 47 °F (1973)
Cooling Degree Days 10    
Growing Degree Days 25 (Base 50)    
Moisture  
Dew Point 64 °F    
Average Humidity 71    
Maximum Humidity 90    
Minimum Humidity 44    
Precipitation  
Precipitation 0.00 in - - ()
Sea Level Pressure  
Sea Level Pressure 30.03 in    
Wind  
Wind Speed 7 mph (South)    
Max Wind Speed 15 mph    
Max Gust Speed 22 mph    
Visibility 10 miles    
Events      
Averages and records for this station are not official NWS values.
T = Trace of Precipitation, MM = Missing Value Source: NWS Daily Summary

Daily Weather History Graph

Daily Weather History Graph

Search for Another Location

Airport:

Trip Planner

Search our weather history database for the weather conditions in past years. The results will help you decide how hot, cold, wet, or windy it might be!

Date:

Astronomy

Apr. 27, 2012 Rise Set
Actual Time 6:21 AM CDT 7:36 PM CDT
Civil Twilight 5:56 AM CDT 8:01 PM CDT
Nautical Twilight 5:26 AM CDT 8:31 PM CDT
Astronomical Twilight 4:55 AM CDT 9:02 PM CDT
Moon 11:05 AM CDT (4/27) 12:16 AM CDT (4/27)
Length of Visible Light 14h 05m
Length of Day
13h 14m
Waxing Crescent, 33% of the Moon is Illuminated
Apr 27
Waxing Crescent
Apr 29
First Quarter
May 5
Full
May 12
Last Quarter
May 20
New

Hourly Weather History & Observations

Time (CDT) Temp. Heat Index Dew Point Humidity Pressure Visibility Wind Dir Wind Speed Gust Speed Precip Events Conditions
12:53 AM 69.1 °F - 64.9 °F 87% 30.02 in 10.0 mi South 5.8 mph - N/A   Partly Cloudy
1:53 AM 68.0 °F - 64.9 °F 90% 30.00 in 9.0 mi South 6.9 mph - N/A   Scattered Clouds
2:53 AM 68.0 °F - 64.9 °F 90% 30.01 in 10.0 mi South 3.5 mph - N/A   Clear
3:30 AM 69.8 °F - 64.4 °F 83% 30.00 in 10.0 mi South 4.6 mph - N/A   Mostly Cloudy
3:45 AM 68.0 °F - 64.4 °F 88% 30.00 in 10.0 mi Calm Calm - N/A   Scattered Clouds
3:53 AM 69.1 °F - 64.9 °F 87% 30.01 in 10.0 mi Calm Calm - N/A   Scattered Clouds
4:53 AM 68.0 °F - 64.0 °F 87% 30.01 in 10.0 mi Calm Calm - N/A   Scattered Clouds
5:53 AM 66.9 °F - 64.0 °F 90% 30.01 in 10.0 mi Calm Calm - N/A   Scattered Clouds
6:53 AM 69.1 °F - 64.9 °F 87% 30.04 in 10.0 mi ESE 3.5 mph - N/A   Scattered Clouds
7:53 AM 71.1 °F - 66.0 °F 84% 30.06 in 10.0 mi SE 4.6 mph - N/A   Scattered Clouds
8:53 AM 73.9 °F - 66.0 °F 76% 30.06 in 10.0 mi SSE 5.8 mph - N/A   Mostly Cloudy
9:53 AM 77.0 °F - 64.9 °F 66% 30.07 in 10.0 mi South 15.0 mph - N/A   Mostly Cloudy
10:53 AM 79.0 °F - 63.0 °F 58% 30.08 in 10.0 mi South 13.8 mph 21.9 mph N/A   Mostly Cloudy
11:53 AM 81.0 °F 82.2 °F 63.0 °F 54% 30.08 in 10.0 mi South 10.4 mph 21.9 mph N/A   Mostly Cloudy
12:53 PM 80.1 °F 81.2 °F 62.1 °F 54% 30.06 in 10.0 mi South 11.5 mph - N/A   Mostly Cloudy
1:53 PM 82.9 °F 83.3 °F 61.0 °F 47% 30.06 in 10.0 mi SSW 13.8 mph - N/A   Mostly Cloudy
2:53 PM 82.0 °F 83.0 °F 62.1 °F 51% 30.04 in 10.0 mi SSE 15.0 mph - N/A   Mostly Cloudy
3:53 PM 82.9 °F 83.7 °F 62.1 °F 49% 30.03 in 10.0 mi South 12.7 mph - N/A   Mostly Cloudy
4:53 PM 82.0 °F 82.4 °F 60.1 °F 47% 30.02 in 10.0 mi SSW 12.7 mph - N/A   Scattered Clouds
5:53 PM 80.1 °F 80.9 °F 60.1 °F 50% 30.01 in 10.0 mi SSE 12.7 mph - N/A   Scattered Clouds
6:53 PM 77.0 °F - 62.1 °F 60% 30.01 in 10.0 mi South 12.7 mph - N/A   Partly Cloudy
7:53 PM 73.0 °F - 63.0 °F 71% 30.00 in 10.0 mi South 8.1 mph - N/A   Scattered Clouds
8:53 PM 72.0 °F - 63.0 °F 73% 30.01 in 10.0 mi South 6.9 mph - N/A   Partly Cloudy
9:53 PM 71.1 °F - 64.0 °F 78% 30.02 in 10.0 mi SSE 4.6 mph - N/A   Partly Cloudy
10:53 PM 70.0 °F - 64.0 °F 81% 30.02 in 10.0 mi SSE 4.6 mph - N/A   Partly Cloudy
11:53 PM 70.0 °F - 64.9 °F 84% 30.02 in 10.0 mi SSE 8.1 mph - N/A   Clear